Terminal Aerodrome Forecast
Issued by NWS Missoula, MT

Home | Current Version | Previous Version | Text Only | Print | Product List | Glossary On
Versions: 1 2 3 4 5 6 7 8 9 10 11 12 13 14 15 16 17
991
FTUS45 KMSO 191721
TAFBTM
TAF
KBTM 191721Z 1918/2018 17008KT P6SM VCSH BKN050 OVC070
     FM192300 21012G18KT P6SM BKN070=

USA.gov is the U.S. government's official web portal to all federal, state and local government web resources and services.